Погода в Слау

Великобритания     51°30′34″N   0°35′43″E
темп.,
°C
ветер,
м/с
пор.,
м/с
влажн.,
%
обл.,
%
осадки,
мм/ч
давл.,
гПа
погр.,
м
13 мая, чт
чт1301:00+10всв4976100 0.0 1007379
04:00+10в41082100 0.1 1005567
07:00+10в3693100 0.4 1005577
10:00+10вюв3696100 0.9 1005602
13:00+9в2595100 4.6 1006333
16:00+12в4683100 0.9 10051000
19:00+11вюв477952 1.3 1006882
22:00+8св36926 0.0 1007149
14 мая, пт
пт1401:00+7ссв38975 0.1 1008220
04:00+7ссв399728 0.0 1008302
07:00+8ссв399028 0.0 1009443
10:00+11ссв467598 0.0 1010795
13:00+12ссв347088 0.1 1010884
16:00+14ссв116024 0.1 10091009
19:00+14ю116152 0.1 1007815
22:00+10юз2487100 0.4 1007158
15 мая, сб
сб1501:00+9ююз2491100 0.6 1006158
04:00+7ю249498 0.0 1004118
07:00+9ююз258990 0.1 1003291
10:00+8ю2696100 1.6 1002407
13:00+9ю2390100 2.0 1002496
16:00+11з248269 0.1 1002568
19:00+12зюз37864 1.1 1001591
22:00+8юз389613 0.9 1002220
16 мая, вс
вс1601:00+7юз389818 0.9 1002226
04:00+6ююз289841 0.0 1001202
07:00+8ююз399576 0.0 1001377
10:00+12юз587091 0.1 10001270
13:00+13юз61079100 1.9 9991407
16:00+12юз61285100 2.2 9981588
19:00+11ююз61191100 3.8 997986
22:00+10ююз51195100 0.5 997900
17 мая, пн
пн1701:00+9ююз51295100 0.8 996649
04:00+10юз61292100 1.6 9961001
07:00+9з61194100 1.7 998686
10:00+11з7118797 0.4 1000888
13:00+13з7117833 2.2 10021469
16:00+13з7118279 2.4 10031354
19:00+11з71289100 4.3 1004987
22:00+8з513935 0.1 1007652